Check out our new BloomSky Weather System.

Active alerts


No alerts


Thunder radar  blitzortung!


Rain radar more information rain snow radar


Visit our other weather sites:

Template documentation
and downloads

And another site



Weather Underground History page Text

Daily Summary for May 17, 2017 Units:  Metric    English   Both
« Previous Day
Next Day »
Daily Weekly Monthly Yearly Custom
  High: Low: Average:
Temperature: 30.8 °C 24.3 °C 26.7 °C
Dew Point: 23.9 °C 20.6 °C 22.1 °C
Humidity: 86 % 56 % 77 %
Wind Speed: 22.5 km/h 0 km/h 10.5 km/h
Wind Gust: 33.8 km/h - -
Wind:- - SSE
Pressure: 1010 hPa 1005.6 hPa -
Precipitation: 0 mm    
Historical Graphs
 
 
Tabular Data for May 17, 2017
Time Temperature Dew Point Pressure Wind Wind Speed Wind Gust Humidity Rainfall Rate (Hourly)
00:00 24.4 °C 20.7 °C 1007.7 hPa SE 12.9 km/h 24.1 km/h 80 % 0 mm
00:05 24.4 °C 20.7 °C 1007.7 hPa ESE 9.7 km/h 20.9 km/h 80 % 0 mm
00:10 24.4 °C 20.7 °C 1007.7 hPa SSE 16.1 km/h 24.1 km/h 80 % 0 mm
00:15 24.4 °C 20.7 °C 1007.7 hPa South 9.7 km/h 27.4 km/h 80 % 0 mm
00:20 24.3 °C 20.8 °C 1007.3 hPa SSE 12.9 km/h 27.4 km/h 81 % 0 mm
00:26 24.3 °C 20.8 °C 1007.3 hPa SE 9.7 km/h 27.4 km/h 81 % 0 mm
00:31 24.3 °C 20.8 °C 1007.3 hPa SE 14.5 km/h 22.5 km/h 81 % 0 mm
00:36 24.3 °C 20.8 °C 1007.3 hPa ESE 17.7 km/h 22.5 km/h 81 % 0 mm
00:41 24.3 °C 20.8 °C 1007.3 hPa SE 17.7 km/h 27.4 km/h 81 % 0 mm
00:42 24.4 °C 20.9 °C 1007.3 hPa ESE 12.9 km/h 27.4 km/h 81 % 0 mm
00:47 24.3 °C 20.8 °C 1007 hPa SE 14.5 km/h 27.4 km/h 81 % 0 mm
00:52 24.3 °C 20.8 °C 1007 hPa ESE 11.3 km/h 27.4 km/h 81 % 0 mm
00:57 24.3 °C 21 °C 1007 hPa SE 11.3 km/h 25.7 km/h 82 % 0 mm
01:02 24.3 °C 21 °C 1007 hPa South 6.4 km/h 30.6 km/h 82 % 0 mm
01:07 24.3 °C 21 °C 1006.7 hPa SSE 12.9 km/h 30.6 km/h 82 % 0 mm
01:12 24.3 °C 21 °C 1006.7 hPa SE 9.7 km/h 30.6 km/h 82 % 0 mm
01:17 24.3 °C 21 °C 1006.3 hPa South 14.5 km/h 27.4 km/h 82 % 0 mm
01:22 24.3 °C 21 °C 1006.3 hPa ESE 19.3 km/h 27.4 km/h 82 % 0 mm
01:27 24.3 °C 21 °C 1006.3 hPa SE 9.7 km/h 24.1 km/h 82 % 0 mm
01:32 24.3 °C 21 °C 1006.3 hPa SE 9.7 km/h 24.1 km/h 82 % 0 mm
01:37 24.3 °C 21 °C 1006 hPa South 11.3 km/h 24.1 km/h 82 % 0 mm
01:42 24.4 °C 21.1 °C 1006 hPa SSE 12.9 km/h 25.7 km/h 82 % 0 mm
01:47 24.4 °C 21.1 °C 1006.3 hPa ESE 11.3 km/h 25.7 km/h 82 % 0 mm
01:52 24.4 °C 21.1 °C 1006.3 hPa SE 12.9 km/h 25.7 km/h 82 % 0 mm
01:57 24.4 °C 21.1 °C 1006 hPa ESE 11.3 km/h 22.5 km/h 82 % 0 mm
02:02 24.4 °C 21.1 °C 1006 hPa SSE 6.4 km/h 22.5 km/h 82 % 0 mm
02:07 24.4 °C 21.1 °C 1006 hPa SE 12.9 km/h 22.5 km/h 82 % 0 mm
02:12 24.4 °C 21.1 °C 1006 hPa South 6.4 km/h 25.7 km/h 82 % 0 mm
02:17 24.4 °C 21.1 °C 1006 hPa SE 12.9 km/h 27.4 km/h 82 % 0 mm
02:22 24.5 °C 21.2 °C 1006 hPa SE 11.3 km/h 27.4 km/h 82 % 0 mm
02:27 24.5 °C 21.4 °C 1006.3 hPa SE 9.7 km/h 27.4 km/h 83 % 0 mm
02:32 24.5 °C 21.4 °C 1006 hPa SE 12.9 km/h 20.9 km/h 83 % 0 mm
02:37 24.5 °C 21.4 °C 1006 hPa ESE 9.7 km/h 25.7 km/h 83 % 0 mm
02:42 24.5 °C 21.4 °C 1006 hPa SSE 8 km/h 25.7 km/h 83 % 0 mm
02:47 24.5 °C 21.2 °C 1006 hPa SE 12.9 km/h 25.7 km/h 82 % 0 mm
02:52 24.5 °C 21.2 °C 1006 hPa South 8 km/h 20.9 km/h 82 % 0 mm
02:57 24.6 °C 21.5 °C 1006 hPa SE 19.3 km/h 20.9 km/h 83 % 0 mm
03:02 24.5 °C 21.4 °C 1006 hPa SSW 8 km/h 27.4 km/h 83 % 0 mm
03:07 24.5 °C 21.4 °C 1006 hPa SSE 16.1 km/h 27.4 km/h 83 % 0 mm
03:12 24.4 °C 21.3 °C 1006 hPa SE 11.3 km/h 27.4 km/h 83 % 0 mm
03:17 24.5 °C 21.4 °C 1006 hPa SE 11.3 km/h 25.7 km/h 83 % 0 mm
03:22 24.5 °C 21.2 °C 1006 hPa East 17.7 km/h 25.7 km/h 82 % 0 mm
03:27 24.5 °C 21.4 °C 1006 hPa SSE 11.3 km/h 25.7 km/h 83 % 0 mm
03:32 24.5 °C 21.4 °C 1006 hPa ESE 12.9 km/h 25.7 km/h 83 % 0 mm
03:37 24.5 °C 21.2 °C 1005.6 hPa SE 16.1 km/h 20.9 km/h 82 % 0 mm
03:42 24.5 °C 21.4 °C 1005.6 hPa SSE 12.9 km/h 24.1 km/h 83 % 0 mm
03:47 24.5 °C 21.4 °C 1005.6 hPa SW 11.3 km/h 29 km/h 83 % 0 mm
03:48 24.5 °C 21.4 °C 1005.6 hPa SSE 12.9 km/h 29 km/h 83 % 0 mm
03:53 24.5 °C 21.4 °C 1005.6 hPa SE 8 km/h 29 km/h 83 % 0 mm
03:58 24.4 °C 21.3 °C 1005.6 hPa SE 19.3 km/h 30.6 km/h 83 % 0 mm
04:03 24.5 °C 21.4 °C 1006 hPa ESE 19.3 km/h 30.6 km/h 83 % 0 mm
04:05 24.5 °C 21.4 °C 1006 hPa SSW 9.7 km/h 30.6 km/h 83 % 0 mm
04:10 24.5 °C 21.4 °C 1006 hPa SE 12.9 km/h 30.6 km/h 83 % 0 mm
04:15 24.5 °C 21.4 °C 1006 hPa WSW 17.7 km/h 25.7 km/h 83 % 0 mm
04:20 24.5 °C 21.4 °C 1006 hPa ESE 17.7 km/h 22.5 km/h 83 % 0 mm
04:25 24.5 °C 21.4 °C 1006.3 hPa South 6.4 km/h 22.5 km/h 83 % 0 mm
04:30 24.5 °C 21.2 °C 1006.3 hPa SE 11.3 km/h 25.7 km/h 82 % 0 mm
04:35 24.5 °C 21.2 °C 1006.3 hPa SSE 6.4 km/h 25.7 km/h 82 % 0 mm
04:40 24.4 °C 21.1 °C 1006.3 hPa SSE 14.5 km/h 25.7 km/h 82 % 0 mm
04:45 24.4 °C 21.1 °C 1006.3 hPa SSE 9.7 km/h 22.5 km/h 82 % 0 mm
04:50 24.4 °C 21.1 °C 1006.3 hPa SSW 9.7 km/h 22.5 km/h 82 % 0 mm
04:55 24.4 °C 21.1 °C 1006.7 hPa SSW 11.3 km/h 22.5 km/h 82 % 0 mm
05:00 24.4 °C 21.3 °C 1006.7 hPa SSE 8 km/h 19.3 km/h 83 % 0 mm
05:05 24.4 °C 21.3 °C 1006.7 hPa SE 12.9 km/h 19.3 km/h 83 % 0 mm
05:10 24.4 °C 21.3 °C 1006.7 hPa SSW 12.9 km/h 16.1 km/h 83 % 0 mm
05:13 24.4 °C 21.3 °C 1006.7 hPa SSW 14.5 km/h 16.1 km/h 83 % 0 mm
05:17 24.5 °C 21.4 °C 1006.7 hPa SSE 6.4 km/h 19.3 km/h 83 % 0 mm
05:27 24.5 °C 21.4 °C 1006.7 hPa SE 8 km/h 19.3 km/h 83 % 0 mm
05:32 24.5 °C 21.4 °C 1006.7 hPa SE 14.5 km/h 19.3 km/h 83 % 0 mm
05:37 24.5 °C 21.6 °C 1006.7 hPa SE 8 km/h 19.3 km/h 84 % 0 mm
05:46 24.4 °C 21.5 °C 1006.7 hPa SE 9.7 km/h 19.3 km/h 84 % 0 mm
05:51 24.5 °C 21.6 °C 1006.7 hPa ESE 6.4 km/h 19.3 km/h 84 % 0 mm
05:56 24.5 °C 21.6 °C 1006.7 hPa SW 16.1 km/h 22.5 km/h 84 % 0 mm
06:01 24.5 °C 21.6 °C 1006.7 hPa ESE 16.1 km/h 22.5 km/h 84 % 0 mm
06:06 24.5 °C 21.6 °C 1006.7 hPa SE 6.4 km/h 22.5 km/h 84 % 0 mm
06:11 24.5 °C 21.6 °C 1006.7 hPa SSW 8 km/h 22.5 km/h 84 % 0 mm
06:16 24.4 °C 21.5 °C 1006.7 hPa SE 12.9 km/h 22.5 km/h 84 % 0 mm
06:21 24.4 °C 21.5 °C 1007 hPa ESE 12.9 km/h 22.5 km/h 84 % 0 mm
06:26 24.4 °C 21.5 °C 1007 hPa SE 12.9 km/h 22.5 km/h 84 % 0 mm
06:31 24.4 °C 21.5 °C 1007 hPa South 8 km/h 22.5 km/h 84 % 0 mm
06:36 24.4 °C 21.5 °C 1007.3 hPa South 8 km/h 20.9 km/h 84 % 0 mm
06:38 24.4 °C 21.5 °C 1007.3 hPa South 11.3 km/h 20.9 km/h 84 % 0 mm
06:41 24.4 °C 21.5 °C 1007.3 hPa SSW 9.7 km/h 19.3 km/h 84 % 0 mm
06:46 24.4 °C 21.5 °C 1007.3 hPa SSE 9.7 km/h 19.3 km/h 84 % 0 mm
06:51 24.4 °C 21.5 °C 1007.7 hPa SSE 4.8 km/h 19.3 km/h 84 % 0 mm
06:56 24.3 °C 21.4 °C 1007.7 hPa SSW 12.9 km/h 19.3 km/h 84 % 0 mm
07:01 24.4 °C 21.5 °C 1008 hPa SE 3.2 km/h 16.1 km/h 84 % 0 mm
07:06 24.4 °C 21.5 °C 1008.7 hPa Calm   16.1 km/h 84 % 0 mm
07:11 24.5 °C 21.6 °C 1009 hPa Calm   16.1 km/h 84 % 0 mm
07:16 24.6 °C 21.7 °C 1009 hPa SSE 4.8 km/h 9.7 km/h 84 % 0 mm
07:21 24.6 °C 21.7 °C 1009 hPa SSW 1.6 km/h 9.7 km/h 84 % 0 mm
07:26 24.6 °C 21.7 °C 1009.4 hPa SSW 1.6 km/h 8 km/h 84 % 0 mm
07:31 24.7 °C 21.6 °C 1009.4 hPa SE 4.8 km/h 9.7 km/h 83 % 0 mm
07:36 24.7 °C 21.8 °C 1009.4 hPa SSW 1.6 km/h 9.7 km/h 84 % 0 mm
07:41 24.8 °C 21.7 °C 1009.4 hPa SSE 3.2 km/h 9.7 km/h 83 % 0 mm
07:44 24.8 °C 21.7 °C 1009.4 hPa SE 3.2 km/h 9.7 km/h 83 % 0 mm
07:49 24.9 °C 21.8 °C 1009.4 hPa SE 8 km/h 9.7 km/h 83 % 0 mm
07:54 25.2 °C 21.9 °C 1009.4 hPa SE 6.4 km/h 11.3 km/h 82 % 0 mm
07:59 25.4 °C 22.1 °C 1009.4 hPa ESE 6.4 km/h 11.3 km/h 82 % 0 mm
08:04 25.6 °C 22.1 °C 1009.7 hPa SE 6.4 km/h 11.3 km/h 81 % 0 mm
08:09 25.8 °C 22.1 °C 1009.7 hPa ESE 8 km/h 12.9 km/h 80 % 0 mm
08:14 25.9 °C 22.2 °C 1009.7 hPa SE 3.2 km/h 12.9 km/h 80 % 0 mm
08:19 26.2 °C 22.3 °C 1009.7 hPa SE 3.2 km/h 12.9 km/h 79 % 0 mm
08:24 26.4 °C 22.3 °C 1009.7 hPa SW 9.7 km/h 11.3 km/h 78 % 0 mm
08:29 26.3 °C 21.9 °C 1009.7 hPa SSE 6.4 km/h 14.5 km/h 77 % 0 mm
08:34 26.2 °C 22.1 °C 1009.7 hPa SE 8 km/h 14.5 km/h 78 % 0 mm
08:39 26.1 °C 22.2 °C 1009.7 hPa SE 6.4 km/h 14.5 km/h 79 % 0 mm
08:44 26.2 °C 22.1 °C 1010 hPa South 6.4 km/h 16.1 km/h 78 % 0 mm
08:49 26.4 °C 22 °C 1010 hPa SW 8 km/h 16.1 km/h 77 % 0 mm
08:54 26.6 °C 21.8 °C 1010 hPa SSE 14.5 km/h 16.1 km/h 75 % 0 mm
08:59 26.5 °C 21.9 °C 1010 hPa ESE 6.4 km/h 17.7 km/h 76 % 0 mm
09:00 26.5 °C 21.9 °C 1010 hPa ESE 9.7 km/h 17.7 km/h 76 % 0 mm
09:05 26.5 °C 21.9 °C 1010 hPa SW 8 km/h 17.7 km/h 76 % 0 mm
09:10 26.5 °C 21.7 °C 1010 hPa South 4.8 km/h 16.1 km/h 75 % 0 mm
09:15 26.6 °C 21.6 °C 1010 hPa SSE 8 km/h 16.1 km/h 74 % 0 mm
09:20 26.7 °C 21.9 °C 1009.7 hPa SSW 4.8 km/h 16.1 km/h 75 % 0 mm
09:25 26.9 °C 21.9 °C 1010 hPa SE 12.9 km/h 16.1 km/h 74 % 0 mm
09:30 27.3 °C 22.3 °C 1010 hPa SE 9.7 km/h 16.1 km/h 74 % 0 mm
09:35 27.4 °C 21.7 °C 1010 hPa SSE 8 km/h 19.3 km/h 71 % 0 mm
09:40 27.6 °C 21.6 °C 1010 hPa SE 11.3 km/h 19.3 km/h 70 % 0 mm
09:45 27.8 °C 21.8 °C 1010 hPa SE 11.3 km/h 19.3 km/h 70 % 0 mm
09:50 28.1 °C 21.6 °C 1010 hPa SE 8 km/h 19.3 km/h 68 % 0 mm
09:55 28.3 °C 21.8 °C 1009.7 hPa South 6.4 km/h 19.3 km/h 68 % 0 mm
10:00 28.3 °C 22.1 °C 1009.7 hPa SE 9.7 km/h 19.3 km/h 69 % 0 mm
10:05 28.5 °C 21.8 °C 1009.7 hPa South 16.1 km/h 19.3 km/h 67 % 0 mm
10:11 28.7 °C 21.7 °C 1009.7 hPa ESE 11.3 km/h 19.3 km/h 66 % 0 mm
10:16 28.4 °C 21.4 °C 1009.7 hPa SE 12.9 km/h 20.9 km/h 66 % 0 mm
10:21 28.3 °C 20.8 °C 1009.7 hPa ESE 17.7 km/h 22.5 km/h 64 % 0 mm
10:26 28.2 °C 21 °C 1009.7 hPa SE 12.9 km/h 22.5 km/h 65 % 0 mm
10:31 28.3 °C 21.6 °C 1009.7 hPa South 11.3 km/h 22.5 km/h 67 % 0 mm
10:36 28.5 °C 21.3 °C 1009.7 hPa ESE 14.5 km/h 24.1 km/h 65 % 0 mm
10:41 28.8 °C 21.8 °C 1009.7 hPa SE 9.7 km/h 24.1 km/h 66 % 0 mm
10:46 29.1 °C 21.3 °C 1009.7 hPa South 9.7 km/h 27.4 km/h 63 % 0 mm
10:51 29.3 °C 21.8 °C 1009.4 hPa South 9.7 km/h 27.4 km/h 64 % 0 mm
10:56 29.4 °C 21.9 °C 1009.4 hPa SSW 8 km/h 27.4 km/h 64 % 0 mm
11:01 29.5 °C 21.7 °C 1009.4 hPa SSE 9.7 km/h 24.1 km/h 63 % 0 mm
11:06 29.6 °C 21.8 °C 1009.4 hPa SSE 9.7 km/h 24.1 km/h 63 % 0 mm
11:11 29.4 °C 21.4 °C 1009.4 hPa SSE 14.5 km/h 29 km/h 62 % 0 mm
11:16 29.6 °C 21.5 °C 1009.4 hPa SSE 8 km/h 29 km/h 62 % 0 mm
11:21 29.8 °C 21.2 °C 1009.4 hPa East 12.9 km/h 29 km/h 60 % 0 mm
11:26 30 °C 21.4 °C 1009.7 hPa South 9.7 km/h 22.5 km/h 60 % 0 mm
11:31 30.2 °C 21.3 °C 1009.4 hPa SE 8 km/h 24.1 km/h 59 % 0 mm
11:36 30.4 °C 20.6 °C 1009.4 hPa SE 11.3 km/h 24.1 km/h 56 % 0 mm
11:41 30.4 °C 20.6 °C 1009.4 hPa SSW 11.3 km/h 27.4 km/h 56 % 0 mm
11:46 30.3 °C 20.8 °C 1009.4 hPa SSE 11.3 km/h 27.4 km/h 57 % 0 mm
11:51 30.3 °C 21.1 °C 1009.4 hPa SE 9.7 km/h 27.4 km/h 58 % 0 mm
11:56 30.5 °C 21.6 °C 1009.4 hPa SE 20.9 km/h 27.4 km/h 59 % 0 mm
12:01 30.6 °C 21.7 °C 1009.4 hPa SE 22.5 km/h 27.4 km/h 59 % 0 mm
12:06 30.6 °C 21.4 °C 1009.4 hPa SE 9.7 km/h 29 km/h 58 % 0 mm
12:11 30.4 °C 21.5 °C 1009.4 hPa SSW 8 km/h 29 km/h 59 % 0 mm
12:16 30.3 °C 21.9 °C 1009.4 hPa SSW 4.8 km/h 29 km/h 61 % 0 mm
12:21 30.6 °C 21.9 °C 1009 hPa SSE 16.1 km/h 25.7 km/h 60 % 0 mm
12:26 30.8 °C 21.9 °C 1009 hPa SSE 9.7 km/h 25.7 km/h 59 % 0 mm
12:31 30.8 °C 22.1 °C 1009 hPa SE 19.3 km/h 29 km/h 60 % 0 mm
12:36 30.5 °C 21.9 °C 1009 hPa SE 11.3 km/h 29 km/h 60 % 0 mm
12:41 30.7 °C 21.8 °C 1009 hPa SSE 16.1 km/h 29 km/h 59 % 0 mm
12:46 30.7 °C 22 °C 1009.4 hPa SE 16.1 km/h 25.7 km/h 60 % 0 mm
12:51 30.3 °C 21.9 °C 1009 hPa ESE 8 km/h 25.7 km/h 61 % 0 mm
12:56 30.4 °C 22 °C 1009.4 hPa South 9.7 km/h 24.1 km/h 61 % 0 mm
13:01 30.2 °C 21.8 °C 1009.4 hPa South 20.9 km/h 29 km/h 61 % 0 mm
13:06 30 °C 21.7 °C 1009.4 hPa SSE 8 km/h 29 km/h 61 % 0 mm
13:11 29.9 °C 21.8 °C 1009 hPa SE 11.3 km/h 29 km/h 62 % 0 mm
13:16 29.6 °C 22.1 °C 1009 hPa SSE 14.5 km/h 25.7 km/h 64 % 0 mm
13:21 29.5 °C 22.2 °C 1009 hPa SE 12.9 km/h 27.4 km/h 65 % 0 mm
13:26 30 °C 22.4 °C 1009 hPa SSE 6.4 km/h 27.4 km/h 64 % 0 mm
13:31 30.2 °C 22.4 °C 1008.7 hPa SSE 17.7 km/h 27.4 km/h 63 % 0 mm
13:36 30.1 °C 22.3 °C 1009 hPa ESE 11.3 km/h 25.7 km/h 63 % 0 mm
13:41 29.8 °C 22.5 °C 1009 hPa SSE 9.7 km/h 25.7 km/h 65 % 0 mm
13:46 29.6 °C 22.3 °C 1008.7 hPa South 9.7 km/h 24.1 km/h 65 % 0 mm
13:51 29.5 °C 22.5 °C 1008.7 hPa ESE 20.9 km/h 24.1 km/h 66 % 0 mm
13:56 29.4 °C 22.4 °C 1008.7 hPa SSW 9.7 km/h 33.8 km/h 66 % 0 mm
14:01 29.4 °C 22.6 °C 1008.7 hPa SE 6.4 km/h 33.8 km/h 67 % 0 mm
14:06 29.3 °C 22.5 °C 1008.7 hPa SSW 11.3 km/h 33.8 km/h 67 % 0 mm
14:11 29.2 °C 22.4 °C 1008.7 hPa SSE 12.9 km/h 25.7 km/h 67 % 0 mm
14:16 29.2 °C 22.7 °C 1008.7 hPa SSE 16.1 km/h 25.7 km/h 68 % 0 mm
14:21 29.4 °C 22.9 °C 1008.7 hPa South 6.4 km/h 22.5 km/h 68 % 0 mm
14:26 29.4 °C 22.9 °C 1008.4 hPa SSE 11.3 km/h 22.5 km/h 68 % 0 mm
14:31 29.4 °C 22.6 °C 1008.4 hPa SSE 20.9 km/h 22.5 km/h 67 % 0 mm
14:36 29.1 °C 22.6 °C 1008.4 hPa SE 9.7 km/h 30.6 km/h 68 % 0 mm
14:41 28.8 °C 22.5 °C 1008.7 hPa South 8 km/h 30.6 km/h 69 % 0 mm
14:46 28.4 °C 22.4 °C 1008.7 hPa SSW 9.7 km/h 30.6 km/h 70 % 0 mm
14:51 28.3 °C 22.5 °C 1008.4 hPa SSE 9.7 km/h 30.6 km/h 71 % 0 mm
14:56 28.4 °C 22.6 °C 1008.4 hPa SSW 20.9 km/h 25.7 km/h 71 % 0 mm
15:01 28.3 °C 22.5 °C 1008.4 hPa SW 22.5 km/h 25.7 km/h 71 % 0 mm
15:06 28.2 °C 22.4 °C 1008.4 hPa South 14.5 km/h 29 km/h 71 % 0 mm
15:11 28.1 °C 22.6 °C 1008.4 hPa South 20.9 km/h 29 km/h 72 % 0 mm
15:16 27.9 °C 22.6 °C 1008.4 hPa SSW 12.9 km/h 29 km/h 73 % 0 mm
15:21 27.8 °C 22.5 °C 1008.4 hPa SE 19.3 km/h 25.7 km/h 73 % 0 mm
15:26 27.8 °C 22.5 °C 1008.4 hPa SSW 12.9 km/h 24.1 km/h 73 % 0 mm
15:31 27.7 °C 22.6 °C 1008.4 hPa SE 8 km/h 24.1 km/h 74 % 0 mm
15:36 27.8 °C 22.7 °C 1008.4 hPa South 14.5 km/h 24.1 km/h 74 % 0 mm
15:41 27.7 °C 22.9 °C 1008.4 hPa SE 6.4 km/h 20.9 km/h 75 % 0 mm
15:42 27.7 °C 22.9 °C 1008.4 hPa ESE 8 km/h 20.9 km/h 75 % 0 mm
15:47 27.5 °C 22.7 °C 1008.4 hPa SSE 6.4 km/h 16.1 km/h 75 % 0 mm
15:52 27.4 °C 22.8 °C 1008.4 hPa South 8 km/h 16.1 km/h 76 % 0 mm
15:57 27.4 °C 22.8 °C 1008.4 hPa SSE 8 km/h 19.3 km/h 76 % 0 mm
16:02 27.1 °C 23.1 °C 1008.4 hPa SSE 19.3 km/h 29 km/h 79 % 0 mm
16:07 26.4 °C 23.1 °C 1008.4 hPa South 11.3 km/h 29 km/h 82 % 0 mm
16:12 26.1 °C 23.2 °C 1008.4 hPa SE 8 km/h 29 km/h 84 % 0 mm
16:17 26 °C 23.3 °C 1008 hPa SSE 4.8 km/h 27.4 km/h 85 % 0 mm
16:22 26.1 °C 23.4 °C 1008 hPa SSW 6.4 km/h 20.9 km/h 85 % 0 mm
16:27 26.2 °C 23.3 °C 1008 hPa ESE 8 km/h 16.1 km/h 84 % 0 mm
16:32 26.5 °C 23.2 °C 1008 hPa South 12.9 km/h 16.1 km/h 82 % 0 mm
16:37 26.8 °C 23.3 °C 1008 hPa SSE 9.7 km/h 17.7 km/h 81 % 0 mm
16:42 27 °C 23 °C 1008 hPa SE 8 km/h 17.7 km/h 79 % 0 mm
16:47 27.2 °C 23 °C 1008 hPa SE 6.4 km/h 17.7 km/h 78 % 0 mm
16:52 27.3 °C 22.9 °C 1008 hPa SSE 6.4 km/h 16.1 km/h 77 % 0 mm
16:57 27.4 °C 23 °C 1008 hPa SE 11.3 km/h 16.1 km/h 77 % 0 mm
17:02 27.6 °C 23 °C 1008 hPa SE 16.1 km/h 17.7 km/h 76 % 0 mm
17:07 27.7 °C 22.9 °C 1008 hPa SE 14.5 km/h 24.1 km/h 75 % 0 mm
17:12 27.9 °C 23.1 °C 1008 hPa SE 9.7 km/h 24.1 km/h 75 % 0 mm
17:17 27.9 °C 22.8 °C 1008 hPa ESE 11.3 km/h 24.1 km/h 74 % 0 mm
17:22 28 °C 22.7 °C 1008 hPa SE 14.5 km/h 22.5 km/h 73 % 0 mm
17:27 28 °C 22.5 °C 1008 hPa SE 14.5 km/h 24.1 km/h 72 % 0 mm
17:32 28 °C 22.5 °C 1008 hPa SSE 14.5 km/h 24.1 km/h 72 % 0 mm
17:37 28 °C 22.5 °C 1008 hPa SE 19.3 km/h 24.1 km/h 72 % 0 mm
17:42 27.9 °C 22.4 °C 1008 hPa SSE 11.3 km/h 24.1 km/h 72 % 0 mm
17:45 27.9 °C 22.4 °C 1007.7 hPa SE 11.3 km/h 24.1 km/h 72 % 0 mm
17:50 27.8 °C 22.3 °C 1007.7 hPa SE 9.7 km/h 24.1 km/h 72 % 0 mm
17:55 27.8 °C 22.3 °C 1007.7 hPa SSE 11.3 km/h 24.1 km/h 72 % 0 mm
18:00 27.8 °C 22.3 °C 1007.7 hPa SSE 16.1 km/h 20.9 km/h 72 % 0 mm
18:05 27.7 °C 22.4 °C 1008 hPa SSW 9.7 km/h 25.7 km/h 73 % 0 mm
18:10 27.7 °C 22.4 °C 1008 hPa East 16.1 km/h 25.7 km/h 73 % 0 mm
18:12 27.6 °C 22.5 °C 1008 hPa SE 6.4 km/h 25.7 km/h 74 % 0 mm
18:17 27.6 °C 22.5 °C 1008 hPa ESE 17.7 km/h 25.7 km/h 74 % 0 mm
18:19 27.6 °C 22.5 °C 1008 hPa South 8 km/h 25.7 km/h 74 % 0 mm
18:24 27.6 °C 22.5 °C 1008 hPa SE 12.9 km/h 25.7 km/h 74 % 0 mm
18:29 27.5 °C 22.4 °C 1007.7 hPa SSE 14.5 km/h 25.7 km/h 74 % 0 mm
18:34 27.4 °C 22.4 °C 1007.7 hPa South 8 km/h 25.7 km/h 74 % 0 mm
18:39 27.4 °C 22.6 °C 1008 hPa SE 17.7 km/h 25.7 km/h 75 % 0 mm
18:44 27.4 °C 22.6 °C 1007.7 hPa SSE 12.9 km/h 25.7 km/h 75 % 0 mm
18:49 27.3 °C 22.5 °C 1007.7 hPa SSE 11.3 km/h 24.1 km/h 75 % 0 mm
18:54 27.3 °C 22.5 °C 1007.7 hPa SE 11.3 km/h 27.4 km/h 75 % 0 mm
18:59 27.3 °C 22.5 °C 1007.7 hPa ENE 6.4 km/h 27.4 km/h 75 % 0 mm
19:04 27.3 °C 22.5 °C 1007.7 hPa SE 12.9 km/h 27.4 km/h 75 % 0 mm
19:09 27.3 °C 22.5 °C 1007.7 hPa ESE 9.7 km/h 25.7 km/h 75 % 0 mm
19:14 27.2 °C 22.6 °C 1008 hPa ESE 12.9 km/h 25.7 km/h 76 % 0 mm
19:19 27.2 °C 22.6 °C 1008 hPa SSE 6.4 km/h 29 km/h 76 % 0 mm
19:24 27.1 °C 22.5 °C 1008 hPa ESE 11.3 km/h 29 km/h 76 % 0 mm
19:29 27.2 °C 22.6 °C 1008 hPa South 12.9 km/h 29 km/h 76 % 0 mm
19:34 27.1 °C 22.7 °C 1008.4 hPa SSE 6.4 km/h 16.1 km/h 77 % 0 mm
19:39 27.1 °C 22.7 °C 1008 hPa SSW 6.4 km/h 16.1 km/h 77 % 0 mm
19:44 27.1 °C 22.7 °C 1008 hPa South 4.8 km/h 19.3 km/h 77 % 0 mm
19:49 27.1 °C 22.7 °C 1008.4 hPa East 11.3 km/h 19.3 km/h 77 % 0 mm
19:54 27.1 °C 22.7 °C 1008.4 hPa SSW 6.4 km/h 19.3 km/h 77 % 0 mm
19:59 27.1 °C 22.9 °C 1008.4 hPa ESE 8 km/h 17.7 km/h 78 % 0 mm
20:04 27.1 °C 22.9 °C 1008 hPa SE 9.7 km/h 17.7 km/h 78 % 0 mm
20:09 27.1 °C 22.9 °C 1008.4 hPa SE 12.9 km/h 16.1 km/h 78 % 0 mm
20:14 27 °C 23 °C 1008.4 hPa ESE 16.1 km/h 19.3 km/h 79 % 0 mm
20:19 27 °C 23 °C 1008.4 hPa East 6.4 km/h 19.3 km/h 79 % 0 mm
20:24 26.9 °C 22.9 °C 1008.4 hPa SE 11.3 km/h 20.9 km/h 79 % 0 mm
20:29 26.9 °C 22.9 °C 1008.4 hPa SE 8 km/h 20.9 km/h 79 % 0 mm
20:34 26.9 °C 23.2 °C 1008.4 hPa SSW 6.4 km/h 20.9 km/h 80 % 0 mm
20:39 26.9 °C 23.2 °C 1008.4 hPa SSE 6.4 km/h 16.1 km/h 80 % 0 mm
20:44 26.9 °C 23.2 °C 1008.4 hPa SE 9.7 km/h 16.1 km/h 80 % 0 mm
20:49 26.9 °C 23.2 °C 1008.4 hPa SSE 11.3 km/h 17.7 km/h 80 % 0 mm
20:50 26.9 °C 23.2 °C 1008.4 hPa SE 3.2 km/h 19.3 km/h 80 % 0 mm
20:55 26.9 °C 23.2 °C 1008.4 hPa SSE 9.7 km/h 19.3 km/h 80 % 0 mm
21:00 26.9 °C 23.4 °C 1008.4 hPa SE 12.9 km/h 19.3 km/h 81 % 0 mm
21:05 26.9 °C 23.4 °C 1008.4 hPa ESE 6.4 km/h 17.7 km/h 81 % 0 mm
21:10 26.8 °C 23.3 °C 1008.7 hPa SSE 11.3 km/h 17.7 km/h 81 % 0 mm
21:15 26.8 °C 23.3 °C 1008.7 hPa SSE 6.4 km/h 17.7 km/h 81 % 0 mm
21:20 26.8 °C 23.5 °C 1008.7 hPa ESE 9.7 km/h 14.5 km/h 82 % 0 mm
21:25 26.8 °C 23.5 °C 1008.7 hPa East 8 km/h 14.5 km/h 82 % 0 mm
21:30 26.8 °C 23.5 °C 1009 hPa ESE 8 km/h 14.5 km/h 82 % 0 mm
21:35 26.8 °C 23.5 °C 1009 hPa ESE 6.4 km/h 14.5 km/h 82 % 0 mm
21:40 26.8 °C 23.5 °C 1009 hPa SE 6.4 km/h 14.5 km/h 82 % 0 mm
21:45 26.7 °C 23.6 °C 1009 hPa ESE 6.4 km/h 16.1 km/h 83 % 0 mm
21:50 26.7 °C 23.6 °C 1009 hPa ESE 6.4 km/h 16.1 km/h 83 % 0 mm
21:55 26.7 °C 23.6 °C 1009 hPa SSE 8 km/h 16.1 km/h 83 % 0 mm
22:00 26.7 °C 23.6 °C 1009 hPa ENE 9.7 km/h 16.1 km/h 83 % 0 mm
22:05 26.6 °C 23.7 °C 1009.4 hPa SSE 6.4 km/h 16.1 km/h 84 % 0 mm
22:10 26.7 °C 23.8 °C 1009.4 hPa SE 8 km/h 16.1 km/h 84 % 0 mm
22:15 26.6 °C 23.7 °C 1009 hPa SE 8 km/h 16.1 km/h 84 % 0 mm
22:20 26.6 °C 23.7 °C 1009.4 hPa SE 6.4 km/h 16.1 km/h 84 % 0 mm
22:25 26.6 °C 23.7 °C 1009.4 hPa SE 8 km/h 16.1 km/h 84 % 0 mm
22:30 26.6 °C 23.9 °C 1009.4 hPa SSE 6.4 km/h 17.7 km/h 85 % 0 mm
22:35 26.6 °C 23.9 °C 1009.4 hPa ESE 9.7 km/h 17.7 km/h 85 % 0 mm
22:40 26.5 °C 23.8 °C 1009.4 hPa South 4.8 km/h 17.7 km/h 85 % 0 mm
22:45 26.5 °C 23.8 °C 1009.4 hPa SE 6.4 km/h 16.1 km/h 85 % 0 mm
22:51 26.5 °C 23.8 °C 1009.4 hPa ESE 9.7 km/h 16.1 km/h 85 % 0 mm
22:55 26.5 °C 23.8 °C 1009.4 hPa SSE 12.9 km/h 19.3 km/h 85 % 0 mm
23:01 26.4 °C 23.9 °C 1009.4 hPa ESE 12.9 km/h 19.3 km/h 86 % 0 mm
23:06 26.4 °C 23.9 °C 1009.4 hPa SSE 11.3 km/h 19.3 km/h 86 % 0 mm
23:10 26.4 °C 23.9 °C 1009.4 hPa ESE 9.7 km/h 17.7 km/h 86 % 0 mm
23:15 26.4 °C 23.9 °C 1009.4 hPa SE 11.3 km/h 16.1 km/h 86 % 0 mm
23:20 26.4 °C 23.9 °C 1009.4 hPa SE 11.3 km/h 17.7 km/h 86 % 0 mm
23:26 26.4 °C 23.9 °C 1009.4 hPa SSE 9.7 km/h 17.7 km/h 86 % 0 mm
23:36 26.4 °C 23.9 °C 1009.4 hPa SSE 6.4 km/h 11.3 km/h 86 % 0 mm
23:41 26.4 °C 23.9 °C 1009.4 hPa SE 6.4 km/h 11.3 km/h 86 % 0 mm
23:46 26.4 °C 23.9 °C 1009.4 hPa SE 6.4 km/h 14.5 km/h 86 % 0 mm
23:51 26.4 °C 23.9 °C 1009.4 hPa SSE 6.4 km/h 14.5 km/h 86 % 0 mm
23:56 26.4 °C 23.9 °C 1009.4 hPa SSE 3.2 km/h 14.5 km/h 86 % 0 mm
Spring, Texas: Villages of Bridgestone
Compliments of Weather Underground - 2.75 mb

Script developed by  Jim McMurry - jmcmurry@mwt.net Adapted for the template by  Wim van der Kuil - Leuven-Template.eu

You find our weather info also at:

UK Metoffice

WeatherCloud

Weather Underground

Mid-South Weather Network

AWEKAS

Citizen Weather Observer Program (CWOP)

HAMweather, WeatherForYou, PWS Weather

Equipment we use:

Weather-station
Davis Vantage Vue

Weather-program
Meteohub

Weather-server
Debian 7.9 x86 (Guest)

Provider
DreamHost

Davis Vantage Vue

Meteohub

Debian 7.9 x86 (Guest)

DreamHost